User: anonymous   Login
Location: Owatonna
(44.0840°N, 93.2260°W)
Time: 07:45:30
(UTC-06:00)
Language:

Cosmos 1500 Rocket - Orbit

View from above orbital plane
View from above orbital plane
View from above satellite
View from above satellite

Ground track
Ground track

The orbit data is extracted from the following two-line orbital elements,

1 14373U 83099B   16039.86504111  .00000332  00000-0  37216-4 0  9993
2 14373  82.5431 346.4687 0021672  60.1244 351.9199 14.83571099747581
Epoch (UTC): 08 February 2016 20:45:39
Eccentricity: 0.0021672
inclination: 82.5431°
perigee height: 603 km
apogee height: 633 km
right ascension of ascending node: 346.4687°
argument of perigee: 60.1244°
revolutions per day: 14.83571099
mean anomaly at epoch: 351.9199°
orbit number at epoch: 74758

The dashed part of the orbit path shows where the satellite is in the earth's shadow,  

DLR